星链-35027 (STARLINK-35027)

导读 | 豆包AI

STARLINK-35027是美国于2025年9月3日发射的星链卫星,隶属于SpaceX公司的星链项目。该项目旨在构建全球卫星互联网星座,为全球偏远地区、海洋等网络覆盖薄弱区域提供高速互联网接入服务,进一步推动星链星座的全球组网进程,拓展太空通信覆盖范围。

Basic Information
目录编号:
65466
目录名称:
STARLINK-35027
国际标识:
2025-195J
轨道中心:
EARTH
卫星名称:
星链-35027
卫星全名:
星链-35027 (STARLINK-35027)
卫星状态:
在轨 (已飞行192 天)
发射日期:
2025-09-03 UTC
国别 :
美国 (US)
星等 :
--
Orbit Information
数据来源 国际轨道数据 AOE轨道数据
星历时间 2026-03-14T05:01:45+0800
14小时前
查看轨道信息
2026-03-13T10:00:00+0800
1天前
查看轨道信息
半长轴 6853.418km 6853.39km
偏心率 0.0001057 0.0001341
轨道倾角 53.158° 53.159°
近地点辐角 19.979° 87.245°
升交点赤经 238.810° 242.491°
平近点角 340.125° 222.701°
近地点 474.556km 474.333km
远地点 476.006km 476.173km
周期 94.107分钟 94.106分钟
每日圈数 15.30178 15.301874
Detailed Information
固有亮度:
5
最大亮度:
2.5
卫星平台:
Starlink V1.0
覆盖范围:
全球
运营商:
太空探索技术公司
运营商所在国:
美国
制造商(研发单位):
太空探索技术公司
制造商所在国:
美国
使用方式:
暂无
Satellite Introduction
Starlink 计划是 SpaceX 推出的全球卫星互联网项目,通过发射低轨道卫星,为全球尤其是偏远地区提供高速、低延迟的互联网服务。自 2019 年起,Starlink 已部署数千颗卫星,旨在缩小全球数字鸿沟,推动互联网普及。该项目还为军事、航空等行业提供通信支持,带来广泛经济效益。
2D Orbit Map
3D Orbit Map
Orbit Altitude Analysis Chart
Orbit Inclination Analysis Chart
Orbit Comprehensive Analysis Chart
View Comprehensive Chart